Regional Weather Roundup
Issued by NWS Wakefield, VA

Home | Current Version | Previous Version | Text Only | Print | Product List | Glossary Off
Versions: 1 2 3 4 5 6 7 8 9 10 11 12 13 14 15 16 17 18 19 20 21 22 23 24 25 26 27 28 29 30 31 32 33 34 35 36 37 38 39 40 41 42 43 44 45 46 47 48 49 50
494 ASUS41 KAKQ 171314 RWRAKQ REGIONAL WEATHER ROUNDUP NATIONAL WEATHER SERVICE WAKEFIELD VA 900 AM EDT FRI AUG 17 2018 Note: "fair" indicates few or no clouds below 12,000 feet with no significant weather and/or obstructions to visibility. * = Denotes station may not report precipitation (e.g., rain,snow,etc.), thunder or fog. VAZ042-051-052>054-056-171400- NORTHERN VIRGINIA CITY SKY/WX TMP DP RH WIND PRES REMARKS WASH NATIONAL PTSUNNY 80 74 81 S8 30.08F DULLES PTSUNNY 75 75 100 SW6 30.08S FORT BELVOIR FAIR 80 76 87 CALM 30.08 QUANTICO PTSUNNY 80 75 84 S6 30.08F FREDERICKSBRG* FAIR 79 77 92 S3 30.08R STAFFORD* FAIR 78 78 100 CALM 30.13R WARRENTON FAIR 79 72 79 SW5 30.08S CULPEPER* FAIR 77 74 89 CALM 30.09S MANASSAS* FAIR 78 74 87 S5 30.08F LEESBURG* FAIR 73 72 94 S3 30.09S WINCHESTER FAIR 75 70 83 S3 30.10F FRONT ROYAL* FAIR 73 72 94 CALM 30.08F LURAY* FAIR 75 72 88 CALM 30.11S $$ VAZ048-049-060>072-079>083-171400- CENTRAL AND SOUTH CENTRAL VIRGINIA CITY SKY/WX TMP DP RH WIND PRES REMARKS RICHMOND FAIR 80 74 81 SW8 30.10S CHESTERFIELD* FAIR 80 74 81 SW7 30.11S PETERSBURG* FAIR 79 73 81 SW5 30.12S HANOVER FAIR 80 74 81 S7 30.11S TAPPAHANNOCK* FAIR 81 76 86 S5 30.10F QUINTON* FAIR 79 77 94 CALM 30.10S CHARLOTTSVILLE FAIR 79 73 82 S7 30.09F GORDONSVILLE* FAIR 77 76 98 SW5 30.10R ORANGE* FAIR 75 72 88 S3 30.10S LOUISA* FAIR 77 73 88 S5 30.14S BUMPASS* FAIR 78 75 91 CALM 30.10S FARMVILLE* FAIR 77 73 90 S5 30.10S CREWE* FAIR 79 78 97 CALM 30.12R FORT PICKETT* FAIR 78 78 100 SW6 30.13R CHASE CITY* FAIR 78 78 100 CALM 30.14S CLARKSVILLE* FAIR 77 77 100 SW3 30.13S SOUTH HILL* FAIR 77 76 97 SW8 30.19S LAWRENCEVILLE* FAIR 78 74 88 SW7 30.13R EMPORIA* N/A 77 73 88 S5 30.13F $$ VAZ088>098-171400- SOUTHEAST VIRGINIA CITY SKY/WX TMP DP RH WIND PRES REMARKS NORFOLK FAIR 83 74 74 SW6 30.11F VIRGINIA BEACH FAIR 81 71 71 SW6 30.11S NORFOLK NAVAL FAIR 82 74 76 SW7 30.12F WEST POINT* FAIR 80 76 86 S5 30.11F SALUDA* FAIR 81 78 91 S3 30.10S NEWPORT NEWS FAIR 82 74 76 SW7 30.11S LANGLEY AFB MOSUNNY 83 76 79 SW6 30.11S FORT EUSTIS FAIR 80 74 81 SW3 30.09S WILLIAMSBURG* FAIR 82 73 74 W6 30.11F HR EXEC AP* FAIR 79 75 87 SW6 30.12F FRANKLIN* FAIR 79 75 89 SW6 30.13S US460-WAKEFLD FAIR 80 74 81 SW6 30.11F $$ VAZ020-022-025-037-045-171400- WEST CENTRAL AND SOUTHWEST VIRGINIA CITY SKY/WX TMP DP RH WIND PRES REMARKS STAUNTON* FAIR 75 70 86 CALM 30.15R WAYNESBORO* FAIR 75 71 88 CALM 30.14S HOT SPRINGS VA FAIR 73 68 85 W10 30.28R LYNCHBURG FAIR 74 71 91 S6 30.14S DANVILLE FAIR 75 74 96 S7 30.15R SOUTH BOSTON* FAIR 79 75 88 SW3 30.13F MARTINSVILLE NOT AVBL ROANOKE FAIR 77 71 82 SW3 30.18R BLACKSBURG FAIR 74 69 84 CALM 30.24R DUBLIN* FAIR 74 69 83 SW5 30.23S MARION* FAIR 74 22 13 W3 30.26R HILLSVILLE* FAIR 72 67 83 S6 30.24S RICHLANDS* FAIR 72 66 80 W7 30.24R WISE* FAIR 72 68 88 SW10 30.24R ABINGDON* FAIR 77 71 80 CALM 30.22R $$ MDZ021>025-VAZ099-100-171400- SOUTHERN MARYLAND AND THE DELMARVA PENINSULA CITY SKY/WX TMP DP RH WIND PRES REMARKS PATUXENT RIVER PTSUNNY 84 75 74 SW7 30.08F BAY BRIDGE APT FAIR 84 75 74 S6 30.08S LEONARDTOWN FAIR 81 73 78 SW3 30.10F DOVER PTSUNNY 82 75 81 S6 30.08S GEORGETOWN FAIR 84 76 76 SW7 30.10F EASTON MOSUNNY 82 77 83 SW6 30.12S CAMBRIDGE SUNNY 82 77 83 CALM 30.09S SALISBURY FAIR 82 77 84 SW7 30.10S TANGIER FAIR 84 79 84 S6 30.10S HX 96 OCEAN CITY FAIR 82 77 84 S5 30.11S WALLOPS ISLAND PTSUNNY 85 78 80 SW3 30.10F HX 96 ACCOMACK* FAIR 84 78 83 CALM 30.10S $$ NCZ012>017-030>032-171400- NORTH CENTRAL AND EASTERN NORTH CAROLINA CITY SKY/WX TMP DP RH WIND PRES REMARKS ROANOKE RAPIDS FAIR 77 75 94 SW9 30.13S RALEIGH FAIR 80 74 81 SW9 30.16S ELIZABETH CITY FAIR 82 78 88 SW7 30.13S AHOSKIE* FAIR 78 76 92 SW5 30.14S EDENTON* FAIR 82 77 85 SW8 30.15S CURRITUCK* FAIR 80 76 88 MISG 30.14S KILL DEVIL HLS PTSUNNY 81 75 84 SW6 30.14R MANTEO FAIR 81 75 83 W7 30.15S CAPE HATTERAS FAIR 83 76 79 W10G18 30.16S TARBORO* NOT AVBL GOLDSBORO FAIR 82 75 81 SW10 30.14F WASHINGTON FAIR 82 76 82 SW7 30.16S GREENVILLE FAIR 81 77 89 SW8 30.16S NEW BERN FAIR 81 77 88 SW8 30.18S WILMINGTON FAIR 83 73 72 SW14 30.18F $$ VAZ048-171400- ELSEWHERE CITY SKY/WX TMP DP RH WIND PRES REMARKS HARRISBURG PA CLOUDY 75 72 90 SE5 30.06F FOG BALTIMORE PTSUNNY 81 74 79 SW5 30.07F ANNAPOLIS FAIR 85 73 67 SW5 30.07F ANDREWS AFB FAIR 81 73 76 S6 30.07F PHILADELPHIA PTSUNNY 81 75 82 S5 30.08S HENDERSON NC FAIR 76 71 86 CALM 30.15S GREENSBORO PTSUNNY 78 73 84 SW10 30.16S ROCKY MOUNT FAIR 80 76 87 SW12 30.15S $$ VAZ100-171400- MARINE STATION/POSITION TIME TEMP WIND PRES WAVE SWELL AIR SEA DIR/SP/G HT/PER HT/PER (UTC) (F) (DEG/KT/KT) (MB) (FT/S) (FT/S) BRANDYWINE LGT 1248 78 200/ 7/ 9 1019.6R CAPE MAY NJ 1248 80 76 200/ 5/ 6 1018.8F LEWES DE 1242 83 75 230/ 5/ 7 1019.1F 15NM E FENWICK I 1250 81 80 CALM 1019.8F 2/ 8 2/ 8 OCEAN-CITY-INLET 1242 76 76 190/ 3/ 5 1020.0F WACHAPREAGUE VA 1248 83 83 190/ 4/ 4 1019.4F THOMAS POINT MD 1200 79 81 200/ 9/ 10 1019.5R GOOSES REEF MD 1250 82 230/ 8/ 10 1019.8R COVE POINT MD 1248 81 230/ 8/ 9 1019.4F SOLOMONS ISLAND 1248 82 83 220/ 7/ 9 1018.5F BISHOPS HEAD MD 1248 82 86 240/ 9/ 10 1019.6F PINEY POINT MD 1236 230/ 8/ 10 N/A POTOMAC MD 1250 81 230/ 8/ 10 1018.1F CAMBRIDGE MD 1248 83 84 1020.0R LEWISETTA VA 1236 81 84 240/ 4/ 6 1018.8F RAPPAHANNOCK LGT 1248 210/ 6/ 7 1020.2F STINGRAY PT 1250 81 270/ 8/ 8 1020.4F YORK RVR RNG VA 1248 81 260/ 6/ 7 1020.0F YORKTOWN VA 1248 84 270/ 2/ 5 1018.9F DOMINION TERM VA 1236 81 250/ 7/ 9 1020.0F KIPTOPEKE VA 1236 82 240/ 5/ 6 N/A CAPE HENRY VA 1248 230/ 4/ 7 1018.0F WILLOUBY STN VA 1236 80 230/ 8/ 10 1019.0S S CRANEY ISL VA 1248 81 220/ 3/ 6 1019.7F CAPE HENRY BUOY 1230 79 N/A 2/ 8 1ST LANDING BUOY 1250 81 250/ 8/ 10 1019.4F 64NM E OF VA BCH 1250 81 82 250/ 6/ 8 1020.9R 3/ 5 2/ 5 DUCK PIER NC 1248 81 78 240/ 9/ 11 1020.1F 44100 DUCK FRF 1215 81 N/A 2/ 8 44056 DUCK FRF 1230 79 N/A 2/ 8 OREGON INLET NC 1236 80 83 240/ 12/ 15 1020.7R HATTERAS NC 1248 81 82 250/ 11/ 14 1021.2F DIAMOND SHLS NC 1250 82 250/ 16/ 19 1021.8F 4/ 5 2/ 8 CAPE LOOKOUT NC 1200 250/ 13/ 17 1022.1R $$

USA.gov is the U.S. government's official web portal to all federal, state and local government web resources and services.